Location: Warren
(41.8440°N, 79.1450°W)
Time: 18:50:38
(UTC-04:00)

Envisat - Visible Passes

Search period start: 21 April 2018 00:00
Search period end: 01 May 2018 00:00
Orbit: 764 x 766 km, 98.2° (Epoch: 21 April)

Date Brightness Start Highest point End Pass type
(mag) Time Alt. Az. Time Alt. Az. Time Alt. Az.
21 Apr 5.4 21:47:17 10° SW 21:51:01 20° W 21:54:46 10° NW visible
22 Apr 4.1 21:09:13 10° S 21:14:02 45° W 21:18:55 10° NNW visible
23 Apr 3.0 20:32:12 10° SSE 20:37:16 83° ENE 20:42:22 10° NNW visible
23 Apr 5.9 22:15:22 10° WSW 22:16:54 11° W 22:18:25 10° WNW visible
24 Apr 5.1 21:35:36 10° SSW 21:39:46 26° W 21:43:59 10° NW visible
25 Apr 3.7 20:57:53 10° S 21:02:51 57° W 21:07:52 10° NNW visible
26 Apr 5.7 22:02:51 10° WSW 22:05:36 15° W 22:08:23 10° WNW visible
27 Apr 4.7 21:24:02 10° SSW 21:28:33 32° W 21:33:06 10° NNW visible
28 Apr 3.3 20:46:38 10° S 20:51:41 72° WSW 20:56:47 10° NNW visible
29 Apr 5.5 21:50:50 10° SW 21:54:21 19° W 21:57:51 10° NW visible
30 Apr 4.3 21:12:35 10° SSW 21:17:20 40° W 21:22:08 10° NNW visible
